Flag for Canada Weather past 2 weeks in Creston, British Columbia, Canada

Now
71 °F

Mild.


Feels Like: 77 °F
Forecast: 58 / 73 °F
Wind: 2 mph from South

Location: Creston

Current Time: Sep 23, 2014 at 11:53:27 AM

Latest Report: Sep 23, 2014 at 11:00 AM


Visibility: N/A

Pressure: 29.94 "Hg

Humidity: 50%

Dew point: 51 °F

Location of CrestonLocation

Historic Weather in Creston — Graph

°F

Creston temperature yesterday

Maximum temperature yesterday: 79 °F (at 4:00 PM)
Minimum temperature yesterday: 52 °F (at 7:00 AM)
Average temperature yesterday: 65 °F

Past Weeks' High & Low Weather Summary

 TemperatureHumidityPressure
High84 °F (Sep 21, 5:00 PM)89% (Sep 19, 6:00 AM)30.60 "Hg (Sep 19, 6:00 AM)
Low37 °F (Sep 11, 6:00 AM)25% (Sep 13, 3:00 PM)29.69 "Hg (Sep 18, 7:00 AM)
Average59 °F59%30.05 "Hg
* Reported Sep 8 10:00 AM — Sep 23 10:00 AM, Creston, Weather by CustomWeather, © 2014

Note: Actual official high and low records may vary slightly from our data, if they occured in-between our weather recording intervals... More about our weather records

Advertising

Creston weather history for previous 24 hours

 ConditionsComfort  
Time TempWeatherWind HumidityBarometerVisibility
10:00 AM
Sep 23
70 °FMild.1 mph57%29.95 "HgN/A
9:00 AM64 °FMild.1 mph68%29.96 "HgN/A
8:00 AM63 °FMild.2 mph70%29.96 "HgN/A
7:00 AM59 °FCool.6 mph75%29.95 "HgN/A
6:00 AM59 °FCool.5 mph75%29.95 "HgN/A
5:00 AM60 °FCool.3 mph74%29.94 "HgN/A
4:00 AM61 °FCool.6 mph72%29.93 "HgN/A
3:00 AM60 °FCool.5 mph77%29.93 "HgN/A
2:00 AM60 °FCool.3 mph75%29.93 "HgN/A
1:00 AM63 °FMild.5 mph74%29.92 "HgN/A
12:00 AM63 °FMild.2 mph71%29.90 "HgN/A
11:00 PM
Sep 22
63 °FMild.5 mph73%29.90 "HgN/A
10:00 PM66 °FMild.2 mph65%29.92 "HgN/A
9:00 PM65 °FMild.3 mph65%29.91 "HgN/A
8:00 PM67 °FMild.3 mph63%29.89 "HgN/A
7:00 PM67 °FMild.1 mph66%29.89 "HgN/A
6:00 PM72 °FMild.3 mph53%29.87 "HgN/A
5:00 PM77 °FMild.5 mph45%29.87 "HgN/A
4:00 PM79 °FPleasantly warm.7 mph39%29.87 "HgN/A
3:00 PM77 °FPleasantly warm.3 mph39%29.87 "HgN/A
2:00 PM78 °FWarm.2 mph41%29.89 "HgN/A
1:00 PM72 °FMild.3 mph50%29.91 "HgN/A
12:00 PM70 °FMild.2 mph54%29.93 "HgN/A
11:00 AM66 °FMild.2 mph58%29.96 "HgN/A
Weather by CustomWeather, © 2014

See weather overviewHow to use our weather pages